SCP
0 0 0 0 0 0 0 0 0 0 0 0 0 0 0 0 0 0 0 -0 -0 -0 -0 -0 0 0 0 0 0 0 0 0 0 0 0 -0 0 0 0 0 0 0 0
0 0 0 0 0 0 0 0 0 0 0 0 0 0 0 0 0 0 0 -0 -0 -0 -0 -0 0 0 0 0 0 0 0 0 0 0 0 0 0 0 0 0 0 0 0
0 0 0 0 0 0 0 0 0 0 0 0 0 0 0 0 0 0 0 -0 -0 -0 -0 0 0 0 0 0 0 0 0 0 0 0 0 0 0 0 0 0 0 0 0
0 0 0 0 0 0 0 0 0 0 0 0 0 0 0 0 -0 0 0 0 -0 0 0 0 0 0 0 0 0 0 0 0 0 0 0 0 0 0 0 0 0 0 0
0 0 0 0 0 0 0 0 0 0 0 0 0 0 0 0 0 0 0 0 0 0 0 0 0 0 0 0 0 0 0 0 0 0 0 0 0 0 0 0 0 0 0
0 0 0 0 0 0 0 0 0 0 0 0 0 0 0 0 0 0 0 0 0 0 0 0 0 0 0 0 0 0 0 0 0 0 0 0 0 0 0 0 0 0 0
0 0 0 0 0 0 0 0 0 0 0 0 0 0 0 0 0 0 0 0 0 0 0 0 0 0 0 0 0 0 0 0 0 0 0 0 0 0 0 0 0 0 0
0 0 0 0 0 0 0 0 0 0 0 0 0 0 0 0 0 0 0 0 0 0 0 0 0 0 0 0 0 0 0 0 0 0 0 0 0 0 0 0 0 0 0
0 0 0 0 0 0 0 0 0 0 0 0 0 0 0 0 0 0 0 0 0 0 0 0 0 0 0 0 0 0 0 0 0 0 0 0 0 0 0 0 0 0 0
0 0 0 0 0 0 0 0 0 0 0 0 0 0 0 0 0 0 0 0 0 0 0 0 0 0 0 0 0 0 0 0 0 0 0 0 0 0 0 0 0 0 0
0 0 0 0 0 0 0 0 0 0 0 0 0 0 0 0 0 0 0 0 0 0 0 0 0 0 0 0 0 0 0 0 0 0 0 0 0 0 0 0 0 0 0
0 0 0 0 0 0 0 0 0 0 0 0 0 0 0 0 0 0 0 0 0 0 0 0 0 0 0 0 0 0 0 0 0 0 0 0 0 0 0 0 0 0 0
0 0 0 0 0 0 0 0 0 0 0 0 0 0 0 0 0 0 0 0 0 0 0 0 0 0 0 0 0 0 0 0 0 0 0 0 0 0 0 0 0 0 0
0 0 0 0 0 0 0 0 0 0 0 0 0 0 0 0 0 0 0 0 0 0 0 0 0 0 0 0 0 0 0 0 0 0 0 0 0 0 0 0 0 0 0
0 0 0 0 0 0 0 0 0 0 0 0 0 0 0 0 0 0 0 0 0 0 0 0 0 0 0 0 0 0 0 0 0 0 0 0 0 0 0 0 0 0 0
0 0 0 0 0 0 0 0 0 0 0 0 0 0 0 0 0 0 0 0 0 0 0 0 0 0 0 0 0 0 0 0 0 0 0 0 0 0 0 0 0 0 0
0 0 0 0 0 0 0 0 0 0 0 0 0 0 0 0 0 0 0 0 0 0 0 0 0 0 0 0 0 0 0 0 0 0 0 0 0 0 0 0 0 0 0
0 0 0 0 0 0 0 0 0 0 0 0 0 0 0 0 0 0 0 0 0 0 0 0 0 0 0 0 0 0 0 0 0 0 0 0 0 0 0 0 0 0 0
0 0 0 0 0 0 0 0 0 0 0 0 0 0 0 0 0 0 0 0 0 0 0 0 0 0 0 0 0 0 0 0 0 0 0 0 0 0 0 0 0 0 0
0 0 0 0 0 0 0 0 0 0 0 0 0 0 0 0 0 0 0 0 0 0 0 0 0 0 0 0 0 0 0 0 0 0 0 0 0 0 0 0 0 0 0
0 0 0 0 0 0 0 0 0 0 0 0 0 0 0 0 0 0 0 0 0 0 0 0 0 0 0 0 0 0 0 0 0 0 0 0 0 0 0 0 0 0 0
0 0 0 0 0 0 0 0 0 0 0 0 0 0 0 0 0 0 0 0 0 0 0 0 0 0 0 0 0 0 0 0 0 0 0 0 0 0 0 0 0 0 0
0 0 0 0 0 0 0 0 0 0 0 0 0 0 0 0 0 0 0 0 0 0 0 0 0 0 0 0 0 0 0 0 0 0 0 0 0 0 0 0 0 0 0
0 0 0 0 0 0 0 0 0 0 0 0 0 0 0 0 0 0 0 0 0 0 0 0 0 0 0 0 0 0 0 0 0 0 0 0 0 0 0 0 0 0 0
0 0 0 0 0 0 0 0 0 0 0 0 0 0 0 0 0 0 0 0 0 0 0 0 0 0 0 0 0 0 0 0 0 0 0 0 0 0 0 0 0 0 0
0 0 0 0 0 0 0 0 0 0 0 0 0 0 0 0 0 0 0 0 0 0 0 0 0 0 0 0 0 0 0 0 0 0 0 0 0 0 0 0 0 0 0
Wind_Speed
3 3 3 2 2 2 2 2 2 2 3 3 4 4 5 5 5 5 5 6 6 6 6 6 7 6 5 5 5 5 6 6 12 10 6 6 7 8 8 7 7 8 9
3 2 2 1 1 1 2 2 3 3 3 4 4 5 5 6 5 6 7 7 7 8 8 8 8 7 7 6 6 7 7 7 9 15 10 7 8 8 9 10 8 8 8
3 2 1 0 1 1 2 2 3 3 4 4 4 5 6 6 7 7 7 8 8 9 9 10 10 9 10 8 7 8 7 9 8 11 13 8 7 6 8 9 9 8 8
3 2 2 2 1 1 1 2 3 3 4 5 5 6 6 7 8 8 9 9 10 10 10 11 11 11 12 11 10 10 9 10 9 11 12 9 8 7 7 8 9 7 8
3 3 3 1 0 1 1 2 3 4 4 5 6 6 6 7 7 10 11 11 12 13 13 12 12 12 17 16 14 11 9 10 10 11 13 11 10 6 8 6 10 8 8
4 3 2 2 2 1 2 3 4 4 5 6 6 7 8 7 15 20 17 13 14 15 15 14 14 14 15 23 26 25 22 16 12 12 13 15 15 9 8 8 9 10 10
5 3 3 2 1 1 2 3 4 5 6 7 7 8 10 12 19 21 22 16 15 14 15 15 14 13 14 15 20 24 23 25 26 19 18 19 17 12 10 12 12 13 14
5 4 3 3 1 1 2 4 4 5 6 7 8 9 10 13 20 22 23 16 14 15 15 15 16 16 15 18 17 17 17 17 19 16 16 18 17 15 14 16 16 16 15
5 5 4 3 1 1 3 4 4 5 6 7 8 8 10 13 20 23 23 12 12 14 14 15 16 16 22 26 20 18 18 17 21 27 28 28 31 32 26 15 14 14 16
5 4 4 3 1 1 3 4 3 5 6 8 9 8 10 12 19 22 22 10 11 12 12 13 17 19 25 27 19 17 18 17 16 16 20 23 22 22 28 20 15 15 15
4 4 3 2 0 2 3 3 4 6 7 7 10 10 10 12 17 21 22 11 11 13 12 12 12 24 28 29 27 19 23 23 17 16 16 15 15 14 14 15 15 15 16
5 3 2 1 1 2 3 4 4 5 7 7 8 9 8 9 13 18 23 23 22 15 13 12 15 27 31 32 26 25 32 28 14 13 13 13 13 13 13 14 16 18 18
4 2 2 2 3 3 4 5 4 4 5 6 6 8 9 8 11 20 22 25 26 17 14 23 28 32 30 22 24 30 23 14 12 13 14 14 13 13 13 13 14 16 18
4 3 3 3 4 4 4 4 4 4 5 6 7 8 9 9 8 8 10 12 17 16 14 17 24 26 23 21 18 16 11 11 12 14 14 14 13 12 12 12 12 12 14
4 3 3 3 4 4 5 5 6 7 8 8 8 8 9 9 12 22 18 12 12 13 14 9 8 9 9 9 10 11 10 10 11 12 13 13 13 13 13 12 12 12 14
4 4 3 3 3 3 4 6 11 12 16 18 17 15 11 16 23 24 24 24 23 22 12 7 9 9 10 11 11 12 11 11 11 12 12 12 13 13 13 12 11 12 13
5 4 3 3 3 4 4 5 7 8 12 14 14 15 16 19 20 21 21 21 18 16 6 7 8 9 10 10 11 12 12 12 12 12 12 12 12 12 13 12 12 11 12
5 5 4 4 4 4 4 4 4 6 8 7 9 15 16 17 18 18 18 14 8 8 5 7 8 9 9 10 11 11 12 12 12 11 11 11 11 11 12 12 11 11 10
5 4 4 4 4 4 4 4 4 5 6 8 8 8 11 15 15 15 13 4 6 7 7 7 8 9 9 10 11 11 12 12 13 12 11 11 10 10 11 11 10 12 11
4 7 6 4 4 4 4 4 4 5 5 6 7 7 6 6 5 7 5 5 5 6 7 8 8 9 9 10 11 11 11 11 12 11 11 10 10 10 10 11 9 9 7
4 5 6 4 4 4 4 5 5 4 5 6 6 8 13 5 5 7 7 6 6 7 8 8 9 9 9 9 10 11 12 11 11 11 11 10 10 9 8 8 8 6 5
4 4 4 4 4 4 4 4 4 5 6 7 6 7 11 5 5 6 6 6 6 6 7 8 8 8 9 10 11 12 11 11 11 11 11 10 9 9 8 6 6 4 3
4 4 4 4 4 5 5 4 4 5 5 5 6 6 5 5 5 6 6 7 7 7 7 7 8 9 8 9 10 10 11 11 10 11 11 10 9 8 7 6 5 4 4
4 5 5 5 4 4 5 5 5 5 5 5 5 5 5 5 6 7 7 6 7 7 7 7 8 11 14 12 10 10 11 11 10 9 11 9 9 7 6 6 6 6 5
4 4 5 5 5 5 5 5 5 5 5 5 5 5 5 5 6 6 6 6 7 8 10 9 7 9 12 15 14 13 16 16 11 9 8 7 8 8 7 6 6 6 6
4 5 5 4 5 5 5 5 5 5 5 5 5 5 5 6 6 6 6 6 6 8 9 8 9 12 14 12 13 16 17 15 11 11 8 6 7 7 7 6 7 6 6
Wind_Direction
134 125 113 103 94 81 64 39 14 360 358 356 349 344 340 338 337 331 321 317 313 306 301 297 291 288 284 280 274 267 259 251 270 280 274 280 274 269 273 265 260 260 262
172 157 143 125 80 43 14 357 353 346 344 342 338 335 332 330 325 319 312 311 301 299 298 293 289 288 280 275 270 267 265 256 264 279 283 280 272 269 268 267 264 259 253
185 179 189 254 329 332 334 341 344 337 333 335 332 326 322 319 315 308 299 296 290 287 287 286 286 285 285 280 273 271 269 270 263 273 279 275 273 268 271 267 259 258 256
194 200 224 245 264 297 335 345 338 333 330 328 322 314 312 312 309 306 305 300 293 288 285 282 282 279 281 282 280 274 273 273 271 272 277 275 270 264 261 270 271 255 255
195 206 221 214 123 41 4 346 335 334 331 323 318 316 314 310 306 309 307 300 296 294 291 287 284 281 280 282 281 278 273 272 273 274 276 278 271 260 259 257 267 270 259
189 196 170 126 96 51 3 344 337 334 330 323 319 316 313 310 310 312 310 305 300 296 295 295 292 286 284 288 287 286 281 276 275 272 274 273 274 266 264 263 268 271 271
177 167 146 131 120 25 346 336 331 326 324 320 316 315 308 305 310 312 311 307 299 295 294 293 292 291 293 290 288 287 285 281 277 275 274 273 278 277 275 271 265 263 264
170 164 154 146 143 7 337 323 321 321 320 316 312 308 304 304 311 312 310 305 296 291 290 290 290 291 289 289 286 282 280 278 276 274 271 274 276 277 272 272 272 272 270
180 174 160 150 145 331 315 314 316 317 311 305 299 302 302 303 308 309 307 301 294 294 292 289 287 286 287 289 288 284 283 281 282 278 275 275 275 276 274 272 264 260 262
185 165 149 142 151 282 295 302 302 303 297 300 300 299 294 293 300 305 307 299 294 292 289 285 283 282 283 286 283 280 280 280 278 276 276 276 276 276 276 269 268 265 265
143 138 139 129 216 271 279 284 292 294 296 295 294 292 287 286 294 302 304 300 292 292 292 290 287 289 289 288 286 279 277 279 275 272 271 270 268 265 263 261 258 258 259
136 141 151 212 274 267 270 278 278 283 291 290 291 293 287 286 290 297 302 303 302 297 294 291 288 290 290 290 287 280 283 285 279 276 273 271 270 267 264 262 260 259 258
142 174 220 252 256 255 259 273 276 268 274 286 290 293 295 290 290 300 303 303 301 298 289 290 294 297 298 297 292 291 290 282 275 273 271 269 267 269 269 266 265 263 262
174 207 227 241 256 252 255 259 259 261 266 273 279 283 288 290 291 291 287 292 296 296 293 295 300 303 302 301 299 297 288 280 276 273 273 273 273 270 268 264 263 262 262
188 213 231 237 246 262 262 250 259 247 245 259 263 269 288 298 299 305 309 307 305 305 318 319 316 313 309 307 305 303 297 290 282 277 275 273 271 269 267 262 257 257 257
200 215 223 235 243 255 271 284 281 282 285 286 289 293 297 300 308 314 317 320 327 333 339 326 316 314 311 310 309 307 303 298 293 287 281 276 273 271 272 266 259 256 257
203 213 221 237 245 254 264 279 297 306 301 302 303 309 309 312 318 323 328 336 342 346 342 315 311 311 310 309 307 306 304 302 298 291 285 281 277 273 270 269 265 257 257
206 219 223 229 239 246 252 260 270 289 303 303 306 310 315 322 325 333 343 351 337 337 313 307 309 308 308 307 306 306 304 304 302 297 291 285 280 276 273 270 267 261 260
210 218 221 227 232 238 246 253 257 263 273 288 301 308 316 319 327 337 352 346 313 316 315 309 305 306 306 306 305 305 305 305 305 305 300 295 289 283 277 274 271 267 262
219 232 227 224 231 237 241 247 254 258 266 275 284 293 304 306 326 327 328 307 303 303 306 307 307 306 307 306 307 308 310 310 311 310 308 305 300 294 288 283 277 272 265
217 231 236 233 231 233 237 242 248 253 261 268 272 281 296 313 310 303 304 303 302 305 307 307 307 308 308 309 310 311 312 314 315 315 313 310 308 305 301 297 295 289 277
218 221 222 229 235 237 239 240 243 250 258 267 277 291 306 311 292 289 291 293 293 291 293 298 301 302 305 311 312 314 315 317 320 321 319 315 312 311 312 315 319 326 337
216 226 232 232 233 242 246 241 242 248 254 259 270 282 287 284 282 283 286 291 295 297 297 296 298 301 307 310 308 310 314 319 321 320 321 321 322 323 324 328 338 355 20
217 226 235 239 235 236 242 246 246 249 253 260 263 268 273 276 280 282 285 288 293 295 294 295 293 297 305 313 312 311 314 324 330 326 325 327 332 338 345 355 7 20 37
226 232 237 241 241 242 246 251 251 252 255 259 262 268 272 275 279 281 283 286 292 295 298 299 294 300 307 310 311 313 318 330 345 345 336 340 346 353 359 6 15 28 41
230 234 239 240 240 240 243 250 254 255 257 261 262 264 271 276 279 281 285 288 295 299 300 299 298 302 306 307 309 317 324 336 360 0 353 351 360 5 7 14 22 31 39